| time (UTC) | temp F | wind direction | speed MPH | gust MPH | rain 1hr in | rain 24hr in | rain mn in | humidity % | barometer mb |
| 20260506134509 | 49 | 335 | 0.0 | 9.0 | 0.10 | 0.25 | 0.18 | 89 | 1007.7 |
| 20260506133006 | 48 | 319 | 0.0 | 5.0 | 0.12 | 0.25 | 0.18 | 89 | 1007.9 |
| 20260506131507 | 48 | 289 | 0.0 | 9.0 | 0.11 | 0.23 | 0.16 | 89 | 1007.9 |
| 20260506130003 | 48 | 355 | 0.0 | 9.0 | 0.09 | 0.19 | 0.12 | 88 | 1007.7 |
| 20260506124600 | 49 | 281 | 1.0 | 10.0 | 0.06 | 0.15 | 0.08 | 87 | 1007.3 |
| 20260506123056 | 50 | 340 | 1.0 | 12.0 | 0.04 | 0.13 | 0.06 | 86 | 1007.0 |
| 20260506121552 | 51 | 249 | 3.0 | 17.0 | 0.02 | 0.12 | 0.05 | 84 | 1006.4 |
| 20260506120048 | 53 | 360 | 3.0 | 14.0 | 0.00 | 0.09 | 0.02 | 85 | 1005.9 |
| 20260506114548 | 55 | 34 | 0.0 | 6.0 | 0.00 | 0.09 | 0.02 | 83 | 1005.6 |
| 20260506113047 | 55 | 348 | 0.0 | 3.0 | 0.00 | 0.09 | 0.02 | 82 | 1005.2 |
| 20260506111545 | 56 | 329 | 0.0 | 3.0 | 0.00 | 0.09 | 0.02 | 81 | 1005.2 |
| 20260506110047 | 56 | 5 | 0.0 | 0.0 | 0.01 | 0.09 | 0.02 | 83 | 1005.1 |
| 20260506104548 | 56 | 9 | 0.0 | 0.0 | 0.01 | 0.09 | 0.02 | 85 | 1005.1 |
| 20260506103041 | 56 | 11 | 0.0 | 0.0 | 0.01 | 0.09 | 0.02 | 84 | 1005.2 |
| 20260506101541 | 55 | 22 | 0.0 | 0.0 | 0.01 | 0.09 | 0.02 | 84 | 1005.2 |
| 20260506100042 | 56 | 22 | 0.0 | 2.0 | 0.00 | 0.09 | 0.02 | 83 | 1005.1 |
| 20260506094540 | 56 | 327 | 0.0 | 0.0 | 0.01 | 0.10 | 0.02 | 83 | 1005.3 |
| 20260506093041 | 55 | 35 | 0.0 | 0.0 | 0.01 | 0.10 | 0.02 | 85 | 1005.3 |
| 20260506091535 | 54 | 32 | 0.0 | 0.0 | 0.01 | 0.10 | 0.02 | 85 | 1005.1 |
| 20260506090032 | 54 | 307 | 0.0 | 0.0 | 0.01 | 0.10 | 0.02 | 86 | 1005.0 |
| 20260506084536 | 54 | 307 | 0.0 | 0.0 | 0.00 | 0.09 | 0.01 | 85 | 1005.1 |
| 20260506083030 | 54 | 307 | 0.0 | 0.0 | 0.00 | 0.09 | 0.01 | 84 | 1005.2 |
| 20260506081529 | 53 | 307 | 0.0 | 0.0 | 0.00 | 0.09 | 0.01 | 85 | 1005.0 |
| 20260506073022 | 52 | 307 | 0.0 | 0.0 | 0.00 | 0.09 | 0.01 | 89 | 1005.1 |
| 20260506071520 | 52 | 307 | 0.0 | 0.0 | 0.00 | 0.09 | 0.01 | 90 | 1005.2 |
| 20260506061506 | 50 | 307 | 0.0 | 0.0 | 0.00 | 0.09 | 0.01 | 91 | 1005.2 |
| 20260506044552 | 48 | 307 | 0.0 | 0.0 | 0.00 | 0.09 | 0.01 | 90 | 1005.4 |
| 20260506043048 | 48 | 276 | 0.0 | 0.0 | 0.00 | 0.09 | 0.01 | 90 | 1005.5 |
| 20260506041553 | 48 | 276 | 0.0 | 0.0 | 0.00 | 0.09 | 0.01 | 90 | 1005.5 |
| 20260506040044 | 49 | 276 | 0.0 | 0.0 | 0.00 | 0.09 | 0.01 | 90 | 1005.6 |
| 20260506034547 | 49 | 276 | 0.0 | 0.0 | 0.00 | 0.09 | 0.01 | 90 | 1006.0 |
| 20260506033042 | 49 | 276 | 0.0 | 0.0 | 0.00 | 0.09 | 0.01 | 90 | 1006.0 |
| 20260506031539 | 49 | 276 | 0.0 | 0.0 | 0.00 | 0.09 | 0.01 | 90 | 1006.3 |
| 20260506030039 | 49 | 276 | 0.0 | 0.0 | 0.00 | 0.09 | 0.01 | 90 | 1006.4 |
| 20260506024537 | 49 | 276 | 0.0 | 0.0 | 0.00 | 0.09 | 0.01 | 90 | 1006.4 |
| 20260506023035 | 49 | 276 | 0.0 | 0.0 | 0.00 | 0.09 | 0.01 | 90 | 1006.6 |
| 20260506021541 | 49 | 276 | 0.0 | 0.0 | 0.00 | 0.09 | 0.01 | 90 | 1006.7 |
| 20260506020032 | 49 | 276 | 0.0 | 0.0 | 0.00 | 0.09 | 0.01 | 90 | 1006.8 |
| 20260506014530 | 49 | 276 | 0.0 | 0.0 | 0.00 | 0.09 | 0.01 | 90 | 1007.0 |
| 20260506013033 | 49 | 276 | 0.0 | 0.0 | 0.00 | 0.09 | 0.01 | 90 | 1007.0 |
| 20260506011544 | 49 | 276 | 0.0 | 0.0 | 0.00 | 0.09 | 0.01 | 90 | 1007.3 |
| 20260506010028 | 49 | 276 | 0.0 | 0.0 | 0.00 | 0.09 | 0.01 | 90 | 1007.3 |
| 20260506004536 | 49 | 276 | 0.0 | 0.0 | 0.00 | 0.09 | 0.01 | 90 | 1007.5 |
| 20260506003026 | 49 | 276 | 0.0 | 0.0 | 0.00 | 0.09 | 0.01 | 90 | 1007.6 |
| 20260506001524 | 49 | 276 | 0.0 | 0.0 | 0.00 | 0.09 | 0.01 | 90 | 1007.9 |
| 20260506000022 | 49 | 276 | 0.0 | 0.0 | 0.00 | 0.09 | 0.01 | 90 | 1008.1 |
| 20260505234522 | 49 | 276 | 0.0 | 0.0 | 0.00 | 0.09 | 0.01 | 90 | 1007.9 |
| 20260505233029 | 49 | 276 | 0.0 | 0.0 | 0.00 | 0.09 | 0.01 | 90 | 1008.0 |
| 20260505231522 | 50 | 276 | 0.0 | 0.0 | 0.00 | 0.09 | 0.01 | 90 | 1008.0 |
| 20260505230017 | 50 | 276 | 0.0 | 0.0 | 0.01 | 0.09 | 0.01 | 90 | 1008.2 |
| 20260505224517 | 50 | 276 | 0.0 | 0.0 | 0.02 | 0.09 | 0.01 | 89 | 1008.2 |
| 20260505223019 | 50 | 276 | 0.0 | 0.0 | 0.02 | 0.09 | 0.01 | 89 | 1008.1 |
| 20260505221514 | 50 | 276 | 0.0 | 0.0 | 0.03 | 0.09 | 0.01 | 89 | 1008.2 |
| 20260505220022 | 50 | 276 | 0.0 | 0.0 | 0.02 | 0.09 | 0.00 | 89 | 1008.3 |
| 20260505214524 | 50 | 276 | 0.0 | 0.0 | 0.03 | 0.08 | 0.08 | 89 | 1008.5 |
| 20260505213018 | 50 | 276 | 0.0 | 0.0 | 0.02 | 0.07 | 0.07 | 89 | 1008.6 |
| 20260505211511 | 51 | 276 | 0.0 | 0.0 | 0.02 | 0.06 | 0.06 | 88 | 1008.7 |
| 20260505210010 | 51 | 276 | 0.0 | 0.0 | 0.02 | 0.06 | 0.06 | 88 | 1008.7 |
| 20260505204509 | 51 | 276 | 0.0 | 0.0 | 0.00 | 0.05 | 0.05 | 88 | 1008.6 |
| 20260505203011 | 51 | 276 | 0.0 | 0.0 | 0.00 | 0.05 | 0.05 | 88 | 1008.5 |
| 20260505201509 | 51 | 276 | 0.0 | 0.0 | 0.00 | 0.05 | 0.05 | 88 | 1008.5 |
| 20260505200008 | 51 | 277 | 0.0 | 0.0 | 0.00 | 0.05 | 0.05 | 87 | 1008.2 |
| 20260505194516 | 52 | 277 | 0.0 | 0.0 | 0.00 | 0.05 | 0.05 | 87 | 1007.9 |
| 20260505193009 | 52 | 275 | 0.0 | 0.0 | 0.00 | 0.05 | 0.05 | 87 | 1007.9 |
| 20260505191507 | 52 | 275 | 0.0 | 0.0 | 0.00 | 0.05 | 0.05 | 87 | 1007.9 |
| 20260505190006 | 53 | 284 | 0.0 | 0.0 | 0.00 | 0.05 | 0.05 | 87 | 1007.8 |
| 20260505184506 | 53 | 273 | 0.0 | 0.0 | 0.00 | 0.05 | 0.05 | 88 | 1007.7 |
| 20260505183005 | 53 | 345 | 0.0 | 0.0 | 0.00 | 0.05 | 0.05 | 88 | 1007.8 |
| 20260505181506 | 53 | 271 | 0.0 | 0.0 | 0.00 | 0.05 | 0.05 | 88 | 1007.8 |
| 20260505180004 | 53 | 271 | 0.0 | 0.0 | 0.00 | 0.05 | 0.05 | 87 | 1007.7 |
| 20260505174504 | 53 | 271 | 0.0 | 1.0 | 0.01 | 0.05 | 0.05 | 87 | 1007.9 |
| 20260505173006 | 54 | 277 | 0.0 | 0.0 | 0.03 | 0.05 | 0.05 | 86 | 1007.8 |
| 20260505171503 | 54 | 327 | 0.0 | 0.0 | 0.03 | 0.05 | 0.05 | 86 | 1007.7 |
| 20260505170003 | 54 | 327 | 0.0 | 0.0 | 0.03 | 0.05 | 0.05 | 84 | 1007.6 |
| 20260505164505 | 54 | 327 | 0.0 | 1.0 | 0.02 | 0.04 | 0.04 | 83 | 1007.3 |
| 20260505163003 | 55 | 327 | 0.0 | 2.0 | 0.00 | 0.02 | 0.02 | 80 | 1007.7 |
| 20260505161502 | 56 | 346 | 0.0 | 3.0 | 0.00 | 0.02 | 0.02 | 78 | 1007.7 |
| 20260505153111 | 61 | 14 | 0.0 | 6.0 | 0.00 | 0.02 | 0.02 | 70 | 1006.8 |
| 20260505151559 | 62 | 265 | 0.0 | 3.0 | 0.00 | 0.02 | 0.02 | 67 | 1006.6 |